Time,TemperatureF,DewpointF,PressureIn,WindDirection,WindDirectionDegrees,WindSpeedMPH,WindSpeedGustMPH,Humidity,HourlyPrecipIn,Conditions,Clouds,dailyrainin,SoftwareType,DateUTC
2013-05-14 00:00:00,46.1,27.5,30.00,West,271,0.0,0.0,48,0.00,,,0.00,Wunderground v.1.15,2013-05-14 04:00:00,
2013-05-14 00:05:00,46.1,26.4,30.00,West,271,0.0,0.0,46,0.00,,,0.00,Wunderground v.1.15,2013-05-14 04:05:00,
2013-05-14 00:10:00,46.1,27.0,30.00,West,271,0.0,2.0,47,0.00,,,0.00,Wunderground v.1.15,2013-05-14 04:10:00,
2013-05-14 00:15:00,46.1,27.0,30.00,West,271,0.0,2.0,47,0.00,,,0.00,Wunderground v.1.15,2013-05-14 04:15:00,
2013-05-14 00:20:00,46.2,26.5,30.00,West,271,0.0,0.0,46,0.00,,,0.00,Wunderground v.1.15,2013-05-14 04:20:00,
2013-05-14 00:25:00,46.4,26.7,30.00,West,271,0.0,0.0,46,0.00,,,0.00,Wunderground v.1.15,2013-05-14 04:25:00,
2013-05-14 00:30:00,46.5,26.8,30.00,WSW,257,0.0,0.0,46,0.00,,,0.00,Wunderground v.1.15,2013-05-14 04:30:00,
2013-05-14 00:40:00,46.5,26.8,30.00,South,178,0.0,0.0,46,0.00,,,0.00,Wunderground v.1.15,2013-05-14 04:40:00,
2013-05-14 00:45:00,46.5,26.8,30.00,South,178,0.0,0.0,46,0.00,,,0.00,Wunderground v.1.15,2013-05-14 04:45:00,
2013-05-14 00:50:00,46.5,26.8,30.00,South,179,0.0,0.0,46,0.00,,,0.00,Wunderground v.1.15,2013-05-14 04:50:00,
2013-05-14 01:00:00,46.5,27.8,29.99,South,179,0.0,0.0,48,0.00,,,0.00,Wunderground v.1.15,2013-05-14 05:00:00,
2013-05-14 01:05:00,46.5,27.3,29.99,South,179,0.0,0.0,47,0.00,,,0.00,Wunderground v.1.15,2013-05-14 05:05:00,
2013-05-14 01:15:00,46.5,27.3,29.99,South,179,0.0,0.0,47,0.00,,,0.00,Wunderground v.1.15,2013-05-14 05:15:00,
2013-05-14 01:20:00,46.5,27.3,29.99,South,179,0.0,0.0,47,0.00,,,0.00,Wunderground v.1.15,2013-05-14 05:20:00,
2013-05-14 01:25:00,46.5,27.3,29.99,South,179,0.0,0.0,47,0.00,,,0.00,Wunderground v.1.15,2013-05-14 05:25:00,
2013-05-14 01:35:00,46.5,27.3,29.99,South,179,0.0,0.0,47,0.00,,,0.00,Wunderground v.1.15,2013-05-14 05:35:00,
2013-05-14 01:40:00,46.5,28.3,29.99,South,179,0.0,0.0,49,0.00,,,0.00,Wunderground v.1.15,2013-05-14 05:40:00,
2013-05-14 01:45:00,46.5,28.3,29.96,SE,143,1.0,1.0,49,0.00,,,0.00,Wunderground v.1.15,2013-05-14 05:45:00,
2013-05-14 01:55:00,46.5,28.3,29.96,SSE,167,2.0,6.0,49,0.00,,,0.00,Wunderground v.1.15,2013-05-14 05:55:00,
2013-05-14 02:00:00,46.5,28.3,29.94,SE,145,1.0,1.0,49,0.00,,,0.00,Wunderground v.1.15,2013-05-14 06:00:00,
2013-05-14 02:05:00,46.7,28.0,29.94,SSE,154,0.0,1.0,48,0.00,,,0.00,Wunderground v.1.15,2013-05-14 06:05:00,
2013-05-14 02:15:00,46.8,27.1,29.94,SSE,151,0.0,1.0,46,0.00,,,0.00,Wunderground v.1.15,2013-05-14 06:15:00,
2013-05-14 02:20:00,47.0,27.3,29.94,South,178,0.0,0.0,46,0.00,,,0.00,Wunderground v.1.15,2013-05-14 06:20:00,
2013-05-14 02:25:00,47.1,26.8,29.94,SSE,167,1.0,1.0,45,0.00,,,0.00,Wunderground v.1.15,2013-05-14 06:25:00,
2013-05-14 02:30:00,47.3,27.0,29.94,SSE,167,1.0,1.0,45,0.00,,,0.00,Wunderground v.1.15,2013-05-14 06:30:00,
2013-05-14 02:40:00,47.3,27.0,29.94,ESE,107,1.0,1.0,45,0.00,,,0.00,Wunderground v.1.15,2013-05-14 06:40:00,
2013-05-14 02:45:00,47.4,26.6,29.94,South,186,1.0,1.0,44,0.00,,,0.00,Wunderground v.1.15,2013-05-14 06:45:00,
2013-05-14 02:55:00,47.6,26.7,29.94,SSE,152,1.0,1.0,44,0.00,,,0.00,Wunderground v.1.15,2013-05-14 06:55:00,
2013-05-14 03:00:00,47.6,26.7,29.94,SE,140,0.0,1.0,44,0.00,,,0.00,Wunderground v.1.15,2013-05-14 07:00:00,
2013-05-14 03:05:00,47.6,26.2,29.94,SE,140,0.0,1.0,43,0.00,,,0.00,Wunderground v.1.15,2013-05-14 07:05:00,
2013-05-14 03:15:00,47.7,26.8,29.94,SE,127,1.0,1.0,44,0.00,,,0.00,Wunderground v.1.15,2013-05-14 07:15:00,
2013-05-14 03:20:00,47.7,27.4,29.94,SE,127,0.0,0.0,45,0.00,,,0.00,Wunderground v.1.15,2013-05-14 07:20:00,
2013-05-14 03:25:00,47.7,27.4,29.94,SE,126,0.0,1.0,45,0.00,,,0.00,Wunderground v.1.15,2013-05-14 07:25:00,
2013-05-14 03:35:00,47.6,28.3,29.93,SE,144,1.0,1.0,47,0.00,,,0.00,Wunderground v.1.15,2013-05-14 07:35:00,
2013-05-14 03:40:00,47.6,28.3,29.93,South,179,0.0,0.0,47,0.00,,,0.00,Wunderground v.1.15,2013-05-14 07:40:00,
2013-05-14 03:45:00,47.6,28.9,29.92,South,179,0.0,0.0,48,0.00,,,0.00,Wunderground v.1.15,2013-05-14 07:45:00,
2013-05-14 03:55:00,47.6,27.8,29.92,SE,128,1.0,2.0,46,0.00,,,0.00,Wunderground v.1.15,2013-05-14 07:55:00,
2013-05-14 04:00:00,47.7,27.4,29.91,SSE,152,1.0,1.0,45,0.00,,,0.00,Wunderground v.1.15,2013-05-14 08:00:00,
2013-05-14 04:05:00,47.9,27.0,29.91,SSE,161,1.0,1.0,44,0.00,,,0.00,Wunderground v.1.15,2013-05-14 08:05:00,
2013-05-14 04:15:00,48.5,26.4,29.91,SE,127,2.0,3.0,42,0.00,,,0.00,Wunderground v.1.15,2013-05-14 08:15:00,
2013-05-14 04:20:00,48.5,25.8,29.91,South,171,2.0,3.0,41,0.00,,,0.00,Wunderground v.1.15,2013-05-14 08:20:00,
2013-05-14 04:25:00,48.6,25.9,29.91,West,264,2.0,3.0,41,0.00,,,0.00,Wunderground v.1.15,2013-05-14 08:25:00,
2013-05-14 04:35:00,48.9,26.2,29.90,SSE,152,3.0,3.0,41,0.00,,,0.00,Wunderground v.1.15,2013-05-14 08:35:00,
2013-05-14 04:40:00,48.9,25.6,29.90,SSW,193,2.0,2.0,40,0.00,,,0.00,Wunderground v.1.15,2013-05-14 08:40:00,
2013-05-14 04:45:00,49.1,25.8,29.88,SW,223,2.0,2.0,40,0.00,,,0.00,Wunderground v.1.15,2013-05-14 08:45:00,
2013-05-14 04:55:00,49.4,25.4,29.88,South,181,2.0,2.0,39,0.00,,,0.00,Wunderground v.1.15,2013-05-14 08:55:00,
2013-05-14 05:00:00,49.5,24.9,29.87,SSW,198,3.0,3.0,38,0.00,,,0.00,Wunderground v.1.15,2013-05-14 09:00:00,
2013-05-14 05:05:00,49.6,25.0,29.87,SW,220,3.0,4.0,38,0.00,,,0.00,Wunderground v.1.15,2013-05-14 09:05:00,
2013-05-14 05:15:00,49.8,25.2,29.87,SW,227,2.0,5.0,38,0.00,,,0.00,Wunderground v.1.15,2013-05-14 09:15:00,
2013-05-14 05:20:00,49.9,25.3,29.87,SSW,213,3.0,3.0,38,0.00,,,0.00,Wunderground v.1.15,2013-05-14 09:20:00,
2013-05-14 05:30:00,50.1,25.5,29.87,SSW,195,2.0,2.0,38,0.00,,,0.00,Wunderground v.1.15,2013-05-14 09:30:00,
2013-05-14 05:35:00,50.1,25.5,29.87,SSW,203,2.0,2.0,38,0.00,,,0.00,Wunderground v.1.15,2013-05-14 09:35:00,
2013-05-14 05:40:00,50.1,25.5,29.87,South,169,3.0,3.0,38,0.00,,,0.00,Wunderground v.1.15,2013-05-14 09:40:00,
2013-05-14 05:50:00,49.8,25.8,29.86,SSE,148,3.0,3.0,39,0.00,,,0.00,Wunderground v.1.15,2013-05-14 09:50:00,
2013-05-14 05:55:00,49.8,25.8,29.86,SSE,168,3.0,3.0,39,0.00,,,0.00,Wunderground v.1.15,2013-05-14 09:55:00,
2013-05-14 06:00:00,49.8,25.8,29.86,ENE,64,2.0,2.0,39,0.00,,,0.00,Wunderground v.1.15,2013-05-14 10:00:00,
2013-05-14 06:05:00,49.8,26.4,29.86,SSW,198,2.0,2.0,40,0.00,,,0.00,Wunderground v.1.15,2013-05-14 10:05:00,
2013-05-14 06:15:00,49.8,27.0,29.85,SSW,198,3.0,6.0,41,0.00,,,0.00,Wunderground v.1.15,2013-05-14 10:15:00,
2013-05-14 06:25:00,49.6,26.8,29.85,SSE,160,3.0,6.0,41,0.00,,,0.00,Wunderground v.1.15,2013-05-14 10:25:00,
2013-05-14 06:30:00,49.6,26.8,29.84,SSW,196,2.0,5.0,41,0.00,,,0.00,Wunderground v.1.15,2013-05-14 10:30:00,
2013-05-14 06:35:00,49.6,27.4,29.84,ESE,116,2.0,5.0,42,0.00,,,0.00,Wunderground v.1.15,2013-05-14 10:35:00,
2013-05-14 06:45:00,49.8,27.6,29.84,SW,217,3.0,6.0,42,0.00,,,0.00,Wunderground v.1.15,2013-05-14 10:45:00,
2013-05-14 06:50:00,49.8,27.6,29.84,SSW,200,3.0,4.0,42,0.00,,,0.00,Wunderground v.1.15,2013-05-14 10:50:00,
2013-05-14 06:55:00,49.9,27.7,29.84,SSW,212,2.0,7.0,42,0.00,,,0.00,Wunderground v.1.15,2013-05-14 10:55:00,
2013-05-14 07:05:00,50.1,28.4,29.83,South,172,3.0,3.0,43,0.00,,,0.00,Wunderground v.1.15,2013-05-14 11:05:00,
2013-05-14 07:15:00,50.1,29.0,29.82,SE,124,2.0,2.0,44,0.00,,,0.00,Wunderground v.1.15,2013-05-14 11:15:00,
2013-05-14 07:20:00,50.1,29.0,29.82,SSW,208,2.0,6.0,44,0.00,,,0.00,Wunderground v.1.15,2013-05-14 11:20:00,
2013-05-14 07:25:00,50.1,29.0,29.82,SSE,164,2.0,6.0,44,0.00,,,0.00,Wunderground v.1.15,2013-05-14 11:25:00,
2013-05-14 07:30:00,50.2,29.1,29.82,SE,143,2.0,2.0,44,0.00,,,0.00,Wunderground v.1.15,2013-05-14 11:30:00,
2013-05-14 07:35:00,50.4,29.8,29.82,SSW,195,2.0,2.0,45,0.00,,,0.00,Wunderground v.1.15,2013-05-14 11:35:00,
2013-05-14 07:45:00,50.7,30.1,29.81,SSW,205,2.0,2.0,45,0.00,,,0.00,Wunderground v.1.15,2013-05-14 11:45:00,
2013-05-14 07:50:00,50.8,29.6,29.81,SSE,150,3.0,3.0,44,0.00,,,0.00,Wunderground v.1.15,2013-05-14 11:50:00,
2013-05-14 07:55:00,51.1,29.9,29.81,SW,227,4.0,5.0,44,0.00,,,0.00,Wunderground v.1.15,2013-05-14 11:55:00,
2013-05-14 08:05:00,51.9,30.1,29.80,SSW,193,4.0,6.0,43,0.00,,,0.00,Wunderground v.1.15,2013-05-14 12:05:00,
2013-05-14 08:15:00,52.6,31.3,29.78,SSW,193,4.0,7.0,44,0.00,,,0.00,Wunderground v.1.15,2013-05-14 12:15:00,
2013-05-14 08:20:00,52.9,31.6,29.78,SSW,198,5.0,5.0,44,0.00,,,0.00,Wunderground v.1.15,2013-05-14 12:20:00,
2013-05-14 08:25:00,53.2,31.8,29.78,South,186,4.0,5.0,44,0.00,,,0.00,Wunderground v.1.15,2013-05-14 12:25:00,
2013-05-14 08:30:00,53.5,32.1,29.78,SSW,199,4.0,4.0,44,0.00,,,0.00,Wunderground v.1.15,2013-05-14 12:30:00,
2013-05-14 08:40:00,53.5,32.1,29.78,SW,227,4.0,4.0,44,0.00,,,0.00,Wunderground v.1.15,2013-05-14 12:40:00,
2013-05-14 08:45:00,53.8,32.4,29.77,SW,220,5.0,5.0,44,0.00,,,0.00,Wunderground v.1.15,2013-05-14 12:45:00,
2013-05-14 08:50:00,54.5,33.0,29.77,SSE,151,3.0,3.0,44,0.00,,,0.00,Wunderground v.1.15,2013-05-14 12:50:00,
2013-05-14 08:55:00,55.3,33.7,29.77,SSW,202,3.0,6.0,44,0.00,,,0.00,Wunderground v.1.15,2013-05-14 12:55:00,
2013-05-14 09:05:00,56.5,33.7,29.76,SSE,157,5.0,5.0,42,0.00,,,0.00,Wunderground v.1.15,2013-05-14 13:05:00,
2013-05-14 09:15:00,56.7,34.4,29.76,South,186,5.0,5.0,43,0.00,,,0.00,Wunderground v.1.15,2013-05-14 13:15:00,
2013-05-14 09:20:00,57.3,35.6,29.76,SW,223,5.0,6.0,44,0.00,,,0.00,Wunderground v.1.15,2013-05-14 13:20:00,
2013-05-14 09:25:00,57.8,35.4,29.76,SSW,202,5.0,10.0,43,0.00,,,0.00,Wunderground v.1.15,2013-05-14 13:25:00,
2013-05-14 09:30:00,57.8,36.0,29.75,SW,216,5.0,6.0,44,0.00,,,0.00,Wunderground v.1.15,2013-05-14 13:30:00,
2013-05-14 09:35:00,57.8,36.0,29.75,SW,222,5.0,6.0,44,0.00,,,0.00,Wunderground v.1.15,2013-05-14 13:35:00,
2013-05-14 09:45:00,58.7,36.8,29.74,SE,137,3.0,9.0,44,0.00,,,0.00,Wunderground v.1.15,2013-05-14 13:45:00,
2013-05-14 09:55:00,60.7,37.5,29.74,SSW,213,5.0,6.0,42,0.00,,,0.00,Wunderground v.1.15,2013-05-14 13:55:00,
2013-05-14 10:00:00,61.5,37.6,29.73,SSW,210,6.0,6.0,41,0.00,,,0.00,Wunderground v.1.15,2013-05-14 14:00:00,
2013-05-14 10:05:00,62.1,38.1,29.73,SSW,209,5.0,6.0,41,0.00,,,0.00,Wunderground v.1.15,2013-05-14 14:05:00,
2013-05-14 10:15:00,62.6,38.6,29.73,West,265,5.0,6.0,41,0.00,,,0.00,Wunderground v.1.15,2013-05-14 14:15:00,
2013-05-14 10:25:00,63.2,39.1,29.73,SW,232,6.0,6.0,41,0.00,,,0.00,Wunderground v.1.15,2013-05-14 14:25:00,
2013-05-14 10:30:00,64.0,39.8,29.72,SW,216,6.0,6.0,41,0.00,,,0.00,Wunderground v.1.15,2013-05-14 14:30:00,
2013-05-14 10:35:00,64.3,38.8,29.72,West,264,5.0,12.0,39,0.00,,,0.00,Wunderground v.1.15,2013-05-14 14:35:00,
2013-05-14 10:45:00,65.5,40.5,29.72,West,260,4.0,5.0,40,0.00,,,0.00,Wunderground v.1.15,2013-05-14 14:45:00,
2013-05-14 10:50:00,65.3,40.3,29.72,South,188,5.0,5.0,40,0.00,,,0.00,Wunderground v.1.15,2013-05-14 14:50:00,
2013-05-14 10:55:00,65.6,41.3,29.72,WSW,243,5.0,5.0,41,0.00,,,0.00,Wunderground v.1.15,2013-05-14 14:55:00,
2013-05-14 11:05:00,66.3,41.9,29.71,SSW,199,4.0,7.0,41,0.00,,,0.00,Wunderground v.1.15,2013-05-14 15:05:00,
2013-05-14 11:15:00,67.3,42.8,29.70,SW,215,5.0,7.0,41,0.00,,,0.00,Wunderground v.1.15,2013-05-14 15:15:00,
2013-05-14 11:25:00,68.3,43.7,29.70,SW,217,5.0,12.0,41,0.00,,,0.00,Wunderground v.1.15,2013-05-14 15:25:00,
2013-05-14 11:30:00,68.3,42.4,29.69,WSW,258,6.0,6.0,39,0.00,,,0.00,Wunderground v.1.15,2013-05-14 15:30:00,
2013-05-14 11:40:00,68.6,44.6,29.69,South,191,6.0,6.0,42,0.00,,,0.00,Wunderground v.1.15,2013-05-14 15:40:00,
2013-05-14 11:45:00,68.8,44.1,29.70,SW,224,7.0,7.0,41,0.00,,,0.00,Wunderground v.1.15,2013-05-14 15:45:00,
2013-05-14 11:50:00,68.9,44.2,29.70,SSW,208,6.0,6.0,41,0.00,,,0.00,Wunderground v.1.15,2013-05-14 15:50:00,
2013-05-14 11:55:00,69.1,45.0,29.70,SSW,206,6.0,8.0,42,0.00,,,0.00,Wunderground v.1.15,2013-05-14 15:55:00,
2013-05-14 12:05:00,69.8,46.9,29.70,SSW,209,6.0,11.0,44,0.00,,,0.00,Wunderground v.1.15,2013-05-14 16:05:00,
2013-05-14 12:15:00,69.9,46.4,29.71,West,267,7.0,7.0,43,0.00,,,0.00,Wunderground v.1.15,2013-05-14 16:15:00,
2013-05-14 12:20:00,69.9,47.0,29.71,West,265,7.0,7.0,44,0.00,,,0.00,Wunderground v.1.15,2013-05-14 16:20:00,
2013-05-14 12:25:00,70.3,46.7,29.71,WSW,251,6.0,8.0,43,0.00,,,0.00,Wunderground v.1.15,2013-05-14 16:25:00,
2013-05-14 12:30:00,69.4,46.5,29.72,WSW,248,7.0,7.0,44,0.00,,,0.00,Wunderground v.1.15,2013-05-14 16:30:00,
2013-05-14 12:40:00,69.9,46.4,29.72,WSW,239,6.0,6.0,43,0.00,,,0.00,Wunderground v.1.15,2013-05-14 16:40:00,
2013-05-14 12:50:00,70.3,46.1,29.72,West,261,6.0,8.0,42,0.00,,,0.00,Wunderground v.1.15,2013-05-14 16:50:00,
2013-05-14 12:55:00,70.3,46.7,29.72,WSW,256,6.0,8.0,43,0.00,,,0.00,Wunderground v.1.15,2013-05-14 16:55:00,
2013-05-14 13:00:00,70.6,46.4,29.72,West,261,6.0,7.0,42,0.00,,,0.00,Wunderground v.1.15,2013-05-14 17:00:00,
2013-05-14 13:05:00,69.9,47.0,29.72,SW,222,7.0,7.0,44,0.00,,,0.00,Wunderground v.1.15,2013-05-14 17:05:00,
2013-05-14 13:15:00,70.3,47.3,29.71,SSW,202,5.0,12.0,44,0.00,,,0.00,Wunderground v.1.15,2013-05-14 17:15:00,
2013-05-14 13:25:00,69.9,47.6,29.71,West,265,7.0,7.0,45,0.00,,,0.00,Wunderground v.1.15,2013-05-14 17:25:00,
2013-05-14 13:30:00,69.9,47.6,29.71,West,264,6.0,6.0,45,0.00,,,0.00,Wunderground v.1.15,2013-05-14 17:30:00,
2013-05-14 13:35:00,69.9,47.0,29.71,WNW,302,7.0,7.0,44,0.00,,,0.00,Wunderground v.1.15,2013-05-14 17:35:00,
2013-05-14 13:45:00,69.8,47.5,29.71,WSW,241,7.0,7.0,45,0.00,,,0.00,Wunderground v.1.15,2013-05-14 17:45:00,
2013-05-14 13:50:00,70.3,47.3,29.71,NW,305,6.0,6.0,44,0.00,,,0.00,Wunderground v.1.15,2013-05-14 17:50:00,
2013-05-14 13:55:00,70.4,48.0,29.71,SW,236,6.0,8.0,45,0.00,,,0.00,Wunderground v.1.15,2013-05-14 17:55:00,
2013-05-14 14:00:00,70.8,47.8,29.70,WSW,254,6.0,8.0,44,0.00,,,0.00,Wunderground v.1.15,2013-05-14 18:00:00,
2013-05-14 14:05:00,70.8,47.8,29.70,West,263,5.0,16.0,44,0.00,,,0.00,Wunderground v.1.15,2013-05-14 18:05:00,
2013-05-14 14:15:00,71.5,48.4,29.69,WNW,288,6.0,8.0,44,0.00,,,0.00,Wunderground v.1.15,2013-05-14 18:15:00,
2013-05-14 14:25:00,71.6,48.5,29.69,SW,216,5.0,6.0,44,0.00,,,0.00,Wunderground v.1.15,2013-05-14 18:25:00,
2013-05-14 14:30:00,71.6,48.5,29.69,SW,236,5.0,5.0,44,0.00,,,0.00,Wunderground v.1.15,2013-05-14 18:30:00,
2013-05-14 14:35:00,72.0,48.3,29.69,NW,308,4.0,5.0,43,0.00,,,0.00,Wunderground v.1.15,2013-05-14 18:35:00,
2013-05-14 14:45:00,72.1,48.4,29.69,SW,236,5.0,10.0,43,0.00,,,0.00,Wunderground v.1.15,2013-05-14 18:45:00,
2013-05-14 14:50:00,72.1,49.0,29.69,West,278,5.0,6.0,44,0.00,,,0.00,Wunderground v.1.15,2013-05-14 18:50:00,
2013-05-14 14:55:00,71.6,48.5,29.69,SW,223,6.0,6.0,44,0.00,,,0.00,Wunderground v.1.15,2013-05-14 18:55:00,
2013-05-14 15:00:00,72.1,48.4,29.69,SSE,162,7.0,7.0,43,0.00,,,0.00,Wunderground v.1.15,2013-05-14 19:00:00,
2013-05-14 15:05:00,72.3,49.2,29.69,NNW,333,6.0,7.0,44,0.00,,,0.00,Wunderground v.1.15,2013-05-14 19:05:00,
2013-05-14 15:15:00,72.5,48.7,29.69,West,275,5.0,9.0,43,0.00,,,0.00,Wunderground v.1.15,2013-05-14 19:15:00,
2013-05-14 15:25:00,72.3,49.2,29.69,WNW,295,5.0,5.0,44,0.00,,,0.00,Wunderground v.1.15,2013-05-14 19:25:00,
2013-05-14 15:30:00,72.3,49.2,29.69,WNW,287,5.0,6.0,44,0.00,,,0.00,Wunderground v.1.15,2013-05-14 19:30:00,
2013-05-14 15:35:00,72.1,49.6,29.69,WNW,299,5.0,6.0,45,0.00,,,0.00,Wunderground v.1.15,2013-05-14 19:35:00,
2013-05-14 15:40:00,72.3,49.2,29.69,WSW,247,4.0,5.0,44,0.00,,,0.00,Wunderground v.1.15,2013-05-14 19:40:00,
2013-05-14 15:50:00,72.1,49.0,29.69,WSW,248,6.0,6.0,44,0.00,,,0.00,Wunderground v.1.15,2013-05-14 19:50:00,
2013-05-14 15:55:00,72.0,48.9,29.69,West,264,7.0,7.0,44,0.00,,,0.00,Wunderground v.1.15,2013-05-14 19:55:00,
2013-05-14 16:05:00,71.6,48.5,29.70,West,267,5.0,7.0,44,0.00,,,0.00,Wunderground v.1.15,2013-05-14 20:05:00,
2013-05-14 16:15:00,72.3,49.8,29.70,WNW,288,4.0,11.0,45,0.00,,,0.00,Wunderground v.1.15,2013-05-14 20:15:00,
2013-05-14 16:25:00,71.3,49.4,29.70,WNW,282,4.0,6.0,46,0.00,,,0.00,Wunderground v.1.15,2013-05-14 20:25:00,
2013-05-14 16:30:00,71.3,50.0,29.70,West,265,3.0,3.0,47,0.00,,,0.00,Wunderground v.1.15,2013-05-14 20:30:00,
2013-05-14 16:35:00,70.6,49.4,29.70,West,272,3.0,3.0,47,0.00,,,0.00,Wunderground v.1.15,2013-05-14 20:35:00,
2013-05-14 16:45:00,70.4,49.2,29.71,WNW,284,4.0,4.0,47,0.00,,,0.00,Wunderground v.1.15,2013-05-14 20:45:00,
2013-05-14 16:50:00,70.6,50.0,29.71,North,353,2.0,2.0,48,0.00,,,0.00,Wunderground v.1.15,2013-05-14 20:50:00,
2013-05-14 16:55:00,70.4,49.8,29.71,West,274,2.0,2.0,48,0.00,,,0.00,Wunderground v.1.15,2013-05-14 20:55:00,
2013-05-14 17:00:00,70.3,49.1,29.71,WSW,251,3.0,5.0,47,0.00,,,0.00,Wunderground v.1.15,2013-05-14 21:00:00,
2013-05-14 17:05:00,69.8,48.7,29.71,West,271,3.0,5.0,47,0.00,,,0.00,Wunderground v.1.15,2013-05-14 21:05:00,
2013-05-14 17:15:00,69.3,49.3,29.72,NW,318,3.0,3.0,49,0.00,,,0.00,Wunderground v.1.15,2013-05-14 21:15:00,
2013-05-14 17:20:00,69.1,48.6,29.72,West,271,2.0,2.0,48,0.00,,,0.00,Wunderground v.1.15,2013-05-14 21:20:00,
2013-05-14 17:25:00,69.1,48.6,29.72,West,271,2.0,6.0,48,0.00,,,0.00,Wunderground v.1.15,2013-05-14 21:25:00,
2013-05-14 17:30:00,68.9,48.9,29.69,WNW,292,2.0,2.0,49,0.00,,,0.00,Wunderground v.1.15,2013-05-14 21:30:00,
2013-05-14 17:35:00,69.1,48.6,29.69,WNW,285,2.0,3.0,48,0.00,,,0.00,Wunderground v.1.15,2013-05-14 21:35:00,
2013-05-14 17:45:00,69.3,48.8,29.68,SSW,210,2.0,3.0,48,0.00,,,0.00,Wunderground v.1.15,2013-05-14 21:45:00,
2013-05-14 17:55:00,70.1,48.9,29.68,West,278,2.0,5.0,47,0.00,,,0.00,Wunderground v.1.15,2013-05-14 21:55:00,
2013-05-14 18:00:00,70.6,48.8,29.67,West,277,2.0,2.0,46,0.00,,,0.00,Wunderground v.1.15,2013-05-14 22:00:00,
2013-05-14 18:05:00,70.9,49.1,29.67,West,272,2.0,2.0,46,0.00,,,0.00,Wunderground v.1.15,2013-05-14 22:05:00,
2013-05-14 18:15:00,70.9,49.1,29.66,SW,234,3.0,3.0,46,0.00,,,0.00,Wunderground v.1.15,2013-05-14 22:15:00,
2013-05-14 18:20:00,70.4,49.2,29.66,West,271,3.0,3.0,47,0.00,,,0.00,Wunderground v.1.15,2013-05-14 22:20:00,
2013-05-14 18:30:00,69.6,49.0,29.66,South,172,2.0,3.0,48,0.00,,,0.00,Wunderground v.1.15,2013-05-14 22:30:00,
2013-05-14 18:35:00,69.3,48.8,29.66,SW,220,2.0,3.0,48,0.00,,,0.00,Wunderground v.1.15,2013-05-14 22:35:00,
2013-05-14 18:45:00,68.9,48.9,29.66,SW,223,1.0,4.0,49,0.00,,,0.00,Wunderground v.1.15,2013-05-14 22:45:00,
2013-05-14 18:50:00,68.6,48.7,29.66,SE,124,1.0,1.0,49,0.00,,,0.00,Wunderground v.1.15,2013-05-14 22:50:00,
2013-05-14 18:55:00,68.6,49.2,29.66,SSW,198,1.0,3.0,50,0.00,,,0.00,Wunderground v.1.15,2013-05-14 22:55:00,
2013-05-14 19:00:00,68.6,49.7,29.63,SSW,199,1.0,1.0,51,0.00,,,0.00,Wunderground v.1.15,2013-05-14 23:00:00,
2013-05-14 19:05:00,68.8,49.9,29.63,SSW,200,1.0,5.0,51,0.00,,,0.00,Wunderground v.1.15,2013-05-14 23:05:00,
2013-05-14 19:15:00,68.8,50.5,29.64,NE,55,1.0,1.0,52,0.00,,,0.00,Wunderground v.1.15,2013-05-14 23:15:00,
2013-05-14 19:20:00,68.8,49.9,29.64,SE,134,0.0,3.0,51,0.00,,,0.00,Wunderground v.1.15,2013-05-14 23:20:00,
2013-05-14 19:25:00,68.8,51.0,29.64,South,182,1.0,3.0,53,0.00,,,0.00,Wunderground v.1.15,2013-05-14 23:25:00,
2013-05-14 19:35:00,68.8,49.9,29.64,SW,219,1.0,2.0,51,0.00,,,0.00,Wunderground v.1.15,2013-05-14 23:35:00,
2013-05-14 19:40:00,68.9,50.5,29.64,SW,219,0.0,0.0,52,0.00,,,0.00,Wunderground v.1.15,2013-05-14 23:40:00,
2013-05-14 19:45:00,69.1,49.7,29.65,SW,219,0.0,0.0,50,0.00,,,0.00,Wunderground v.1.15,2013-05-14 23:45:00,
2013-05-14 19:55:00,68.8,49.9,29.65,SW,219,0.0,0.0,51,0.00,,,0.00,Wunderground v.1.15,2013-05-14 23:55:00,
2013-05-14 20:00:00,68.4,50.6,29.64,SW,219,0.0,0.0,53,0.00,,,0.00,Wunderground v.1.15,2013-05-15 00:00:00,
2013-05-14 20:05:00,68.3,50.5,29.64,SW,219,0.0,0.0,53,0.00,,,0.00,Wunderground v.1.15,2013-05-15 00:05:00,
2013-05-14 20:15:00,67.9,50.6,29.62,SW,219,0.0,0.0,54,0.00,,,0.00,Wunderground v.1.15,2013-05-15 00:15:00,
2013-05-14 20:20:00,67.6,50.9,29.62,SE,131,0.0,0.0,55,0.00,,,0.00,Wunderground v.1.15,2013-05-15 00:20:00,
2013-05-14 20:25:00,67.4,50.7,29.62,SSW,205,1.0,5.0,55,0.00,,,0.00,Wunderground v.1.15,2013-05-15 00:25:00,
2013-05-14 20:35:00,67.1,50.9,29.61,SSW,205,2.0,4.0,56,0.00,,,0.00,Wunderground v.1.15,2013-05-15 00:35:00,
2013-05-14 20:40:00,66.9,50.7,29.61,SSW,195,2.0,2.0,56,0.00,,,0.00,Wunderground v.1.15,2013-05-15 00:40:00,
2013-05-14 20:45:00,66.9,51.2,29.61,SSW,195,1.0,2.0,57,0.00,,,0.00,Wunderground v.1.15,2013-05-15 00:45:00,
2013-05-14 20:55:00,66.6,51.4,29.61,SSW,195,0.0,0.0,58,0.00,,,0.00,Wunderground v.1.15,2013-05-15 00:55:00,
2013-05-14 21:00:00,66.3,51.5,29.61,SSW,195,0.0,1.0,59,0.00,,,0.00,Wunderground v.1.15,2013-05-15 01:00:00,
2013-05-14 21:05:00,66.1,51.4,29.61,SSW,195,0.0,1.0,59,0.00,,,0.00,Wunderground v.1.15,2013-05-15 01:05:00,
2013-05-14 21:15:00,65.6,51.3,29.60,SSW,195,0.0,0.0,60,0.00,,,0.00,Wunderground v.1.15,2013-05-15 01:15:00,
2013-05-14 21:25:00,65.0,51.7,29.60,SSW,195,0.0,0.0,62,0.00,,,0.00,Wunderground v.1.15,2013-05-15 01:25:00,
2013-05-14 21:30:00,64.7,51.8,29.60,SSW,195,0.0,0.0,63,0.00,,,0.00,Wunderground v.1.15,2013-05-15 01:30:00,
2013-05-14 21:35:00,64.3,51.4,29.60,SSW,195,0.0,0.0,63,0.00,,,0.00,Wunderground v.1.15,2013-05-15 01:35:00,
2013-05-14 21:45:00,63.7,51.7,29.60,SSW,195,0.0,0.0,65,0.00,,,0.00,Wunderground v.1.15,2013-05-15 01:45:00,
2013-05-14 21:50:00,63.2,51.6,29.60,SSW,195,0.0,0.0,66,0.00,,,0.00,Wunderground v.1.15,2013-05-15 01:50:00,
2013-05-14 21:55:00,62.6,51.5,29.60,SSW,195,0.0,0.0,67,0.00,,,0.00,Wunderground v.1.15,2013-05-15 01:55:00,
2013-05-14 22:00:00,62.3,52.0,29.59,SSW,195,0.0,0.0,69,0.00,,,0.00,Wunderground v.1.15,2013-05-15 02:00:00,
2013-05-14 22:05:00,62.0,52.1,29.59,SSW,195,0.0,0.0,70,0.00,,,0.00,Wunderground v.1.15,2013-05-15 02:05:00,
2013-05-14 22:15:00,61.5,52.0,29.59,SSW,195,0.0,0.0,71,0.00,,,0.00,Wunderground v.1.15,2013-05-15 02:15:00,
2013-05-14 22:25:00,61.0,51.9,29.59,SSW,195,0.0,0.0,72,0.00,,,0.00,Wunderground v.1.15,2013-05-15 02:25:00,
2013-05-14 22:30:00,60.9,52.2,29.60,SSW,195,0.0,0.0,73,0.00,,,0.00,Wunderground v.1.15,2013-05-15 02:30:00,
2013-05-14 22:35:00,60.5,51.8,29.60,SSW,195,0.0,0.0,73,0.00,,,0.00,Wunderground v.1.15,2013-05-15 02:35:00,
2013-05-14 22:40:00,60.4,52.1,29.60,SSW,195,0.0,0.0,74,0.00,,,0.00,Wunderground v.1.15,2013-05-15 02:40:00,
2013-05-14 22:50:00,59.9,52.3,29.60,SSW,195,0.0,0.0,76,0.00,,,0.00,Wunderground v.1.15,2013-05-15 02:50:00,
2013-05-14 22:55:00,59.6,52.0,29.60,SSW,195,0.0,0.0,76,0.00,,,0.00,Wunderground v.1.15,2013-05-15 02:55:00,
2013-05-14 23:05:00,59.3,52.1,29.59,SSW,195,0.0,0.0,77,0.00,,,0.00,Wunderground v.1.15,2013-05-15 03:05:00,
2013-05-14 23:15:00,59.3,52.4,29.58,SSW,195,0.0,0.0,78,0.00,,,0.00,Wunderground v.1.15,2013-05-15 03:15:00,
2013-05-14 23:20:00,59.3,52.1,29.58,SSW,195,0.0,0.0,77,0.00,,,0.00,Wunderground v.1.15,2013-05-15 03:20:00,
2013-05-14 23:25:00,59.5,52.3,29.58,SSW,195,0.0,0.0,77,0.00,,,0.00,Wunderground v.1.15,2013-05-15 03:25:00,
2013-05-14 23:30:00,59.6,52.4,29.57,SSW,195,0.0,0.0,77,0.00,,,0.00,Wunderground v.1.15,2013-05-15 03:30:00,
2013-05-14 23:40:00,60.2,52.2,29.57,SSW,195,0.0,0.0,75,0.00,,,0.00,Wunderground v.1.15,2013-05-15 03:40:00,
2013-05-14 23:45:00,60.5,52.5,29.55,SSW,195,0.0,1.0,75,0.00,,,0.00,Wunderground v.1.15,2013-05-15 03:45:00,
2013-05-14 23:50:00,61.0,52.3,29.55,SSE,152,1.0,5.0,73,0.00,,,0.00,Wunderground v.1.15,2013-05-15 03:50:00,
2013-05-14 23:55:00,61.8,52.3,29.55,SSE,148,2.0,5.0,71,0.00,,,0.00,Wunderground v.1.15,2013-05-15 03:55:00,